SL-14 DEB, 45314

Orbit data source: Space-Track

SL-14 DEB, 45314 is space debris in LEO originally from a launch on Thu, 15 Aug 1991 UTC launched from the Plesetsk Missile And Space Complex (PKMTR). Debris objects in space refer to the collection of defunct objects orbiting the Earth. Examples of debris include non-operational satellites, rocket bodies, and fragments generated from explosions, collisions, or faulty payload assembly.

Loading next visibility...
Identifier
45314, 1991-056BC
Orbit
LEO
Country
Flag of CISCIS
Related business
Manufacturer
Unknown
Mission
Spacecraft
Bus & Motor
Unknown
Mass
Unknown
Launch date (UTC)
1991-08-15 (34 years ago)
Launch vehicle
Unknown
Launch site
Plesetsk Missile And Space Complex (PKMTR)
Object type
Payload
Rocket body
Debris
Shape & HBR
Unknown shape, 0.1 m
Radar Cross Section
Small (<0.1 m²)

Expand to show TLE details & history
Last TLE update: 15 hours ago

TLE from 15 hours ago
0 SL-14 DEB
1 45314U 91056BC  25287.15719546 -.00000519  00000-0 -15333-2 0  9994
2 45314  82.5387 330.4187 0051988 170.9555 189.2512 13.09412146269085
Epoch: 2025-10-14T03:46Z
TLE epoch observation values (Epoch: 2025-10-14T03:46:21.687Z)
Latitude
-0.00005°
Longitude
-109.12132°
Altitude
1,267.258 km
Speed
7.203 km/s
True Right ascension
22h 01m 40s
True Declination
0° 00' 00"
Sunlit
Object was in full shadow at epoch
Visualization orbit readout
Latitude
Unknown
Longitude
Unknown
Altitude
Unknown
Speed
Unknown
Apparent Right ascension
Unknown
Apparent Declination
Unknown
Sunlit
N/A
Visualization observer readout
Local Sidereal Time
13:49:35
Azimuth
Unknown
Elevation
Unknown
Doppler factor
Unknown
Orbital elements
Apogee altitude
1,262.205 km
Perigee altitude
1,183.174 km
Semi-major axis
7,600.827 km
Eccentricity
0.0052
Inclination
82.5387°
RAAN
330.4187°
Arg. of periapsis
170.9555°
True anomaly
189.15604°
Mean anomaly
189.2512°
Eccentric anomaly
189.20356°
Mean motion
3.27531 °/min
Orbital period
109.91 mins
BSTAR
-0.0015333
Loading maneuver chart data...
Computing Atmospheric mass density...
Loading historical data...
Loading historical data...
Loading historical data...
Loading historical data...
Loading historical data...
Loading historical data...
Loading historical data...

Documentation

Showing up to 5 results
|